| time (UTC) | temp F | wind direction | speed knots | gust knots | rain 1hr in | rain 24hr in | rain mn in | humidity % | barometer mb |
| 20260504185517 | 81 | 172 | 2.6 | 6.1 | 0.00 | 0.00 | 0.00 | 58 | 1013.1 |
| 20260504184517 | 81 | 149 | 2.6 | 7.8 | 0.00 | 0.00 | 0.00 | 59 | 1013.3 |
| 20260504183540 | 81 | 155 | 2.6 | 6.1 | 0.00 | 0.00 | 0.00 | 58 | 1013.3 |
| 20260504182517 | 81 | 181 | 3.5 | 7.0 | 0.00 | 0.00 | 0.00 | 59 | 1013.4 |
| 20260504181557 | 81 | 161 | 3.5 | 7.0 | 0.00 | 0.00 | 0.00 | 58 | 1013.5 |
| 20260504180517 | 81 | 171 | 2.6 | 6.1 | 0.00 | 0.00 | 0.00 | 57 | 1013.6 |
| 20260504175518 | 79 | 169 | 3.5 | 7.0 | 0.00 | 0.00 | 0.00 | 60 | 1013.9 |
| 20260504174538 | 79 | 159 | 3.5 | 7.0 | 0.00 | 0.00 | 0.00 | 61 | 1014.0 |
| 20260504173538 | 79 | 171 | 2.6 | 5.2 | 0.00 | 0.00 | 0.00 | 61 | 1014.1 |
| 20260504172518 | 80 | 175 | 2.6 | 7.0 | 0.00 | 0.00 | 0.00 | 60 | 1014.1 |
| 20260504171518 | 79 | 165 | 2.6 | 8.7 | 0.00 | 0.00 | 0.00 | 60 | 1014.5 |
| 20260504170518 | 78 | 176 | 3.5 | 7.8 | 0.00 | 0.00 | 0.00 | 60 | 1014.5 |
| 20260504150517 | 74 | 159 | 2.6 | 6.1 | 0.00 | 0.00 | 0.00 | 67 | 1015.2 |
| 20260504140518 | 72 | 96 | 1.7 | 4.3 | 0.00 | 0.00 | 0.00 | 67 | 1015.4 |
| 20260504130518 | 64 | 154 | 0.9 | 2.6 | 0.00 | 0.00 | 0.00 | 78 | 1015.2 |
| 20260504110517 | 57 | 211 | 0.9 | 2.6 | 0.00 | 0.00 | 0.00 | 88 | 1014.8 |
| 20260504100518 | 58 | 281 | 0.9 | 1.7 | 0.00 | 0.00 | 0.00 | 86 | 1015.1 |
| 20260504081519 | 59 | 220 | 0.9 | 0.9 | 0.00 | 0.00 | 0.00 | 82 | 1015.7 |
| 20260504080519 | 59 | 212 | 0.0 | 0.9 | 0.00 | 0.00 | 0.00 | 82 | 1015.8 |
| 20260504050522 | 63 | 202 | 0.9 | 1.7 | 0.00 | 0.00 | 0.00 | 72 | 1017.8 |
| 20260504045602 | 63 | 200 | 1.7 | 1.7 | 0.00 | 0.00 | 0.00 | 71 | 1017.7 |
| 20260504044522 | 64 | 193 | 0.9 | 1.7 | 0.00 | 0.00 | 0.00 | 70 | 1017.7 |
| 20260504043522 | 64 | 191 | 0.9 | 1.7 | 0.00 | 0.00 | 0.00 | 69 | 1017.8 |
| 20260504042522 | 64 | 194 | 1.7 | 1.7 | 0.00 | 0.00 | 0.00 | 69 | 1017.9 |
| 20260504041522 | 65 | 192 | 0.9 | 1.7 | 0.00 | 0.00 | 0.00 | 68 | 1018.0 |
| 20260504040523 | 65 | 196 | 1.7 | 1.7 | 0.00 | 0.00 | 0.00 | 67 | 1017.9 |
| 20260504035522 | 66 | 202 | 1.7 | 1.7 | 0.00 | 0.00 | 0.00 | 66 | 1017.8 |
| 20260504034543 | 66 | 180 | 1.7 | 2.6 | 0.00 | 0.00 | 0.00 | 65 | 1017.8 |
| 20260504033523 | 67 | 198 | 1.7 | 2.6 | 0.00 | 0.00 | 0.00 | 64 | 1017.9 |
| 20260504032523 | 67 | 200 | 2.6 | 2.6 | 0.00 | 0.00 | 0.00 | 63 | 1017.9 |
| 20260504031523 | 68 | 202 | 2.6 | 3.5 | 0.00 | 0.00 | 0.00 | 62 | 1017.7 |
| 20260504030523 | 68 | 204 | 1.7 | 3.5 | 0.00 | 0.00 | 0.00 | 61 | 1017.7 |
| 20260504025523 | 68 | 201 | 1.7 | 3.5 | 0.00 | 0.00 | 0.00 | 60 | 1017.6 |
| 20260504024543 | 69 | 191 | 1.7 | 2.6 | 0.00 | 0.00 | 0.00 | 59 | 1017.5 |
| 20260504023524 | 69 | 181 | 1.7 | 2.6 | 0.00 | 0.00 | 0.00 | 58 | 1017.5 |
| 20260504022524 | 69 | 194 | 1.7 | 2.6 | 0.00 | 0.00 | 0.00 | 58 | 1017.5 |
| 20260504021524 | 70 | 200 | 1.7 | 3.5 | 0.00 | 0.00 | 0.00 | 57 | 1017.4 |
| 20260504020524 | 70 | 158 | 1.7 | 2.6 | 0.00 | 0.00 | 0.00 | 56 | 1017.2 |
| 20260504015524 | 71 | 140 | 1.7 | 2.6 | 0.00 | 0.00 | 0.00 | 55 | 1017.2 |
| 20260504014519 | 71 | 184 | 1.7 | 3.5 | 0.00 | 0.00 | 0.00 | 54 | 1017.2 |
| 20260504013539 | 72 | 180 | 1.7 | 4.3 | 0.00 | 0.00 | 0.00 | 53 | 1017.1 |
| 20260504012519 | 72 | 181 | 1.7 | 4.3 | 0.00 | 0.00 | 0.00 | 53 | 1017.1 |
| 20260504011519 | 73 | 188 | 1.7 | 3.5 | 0.00 | 0.00 | 0.00 | 52 | 1017.1 |
| 20260504010516 | 73 | 186 | 0.9 | 5.2 | 0.00 | 0.00 | 0.00 | 51 | 1017.0 |
| 20260504005516 | 74 | 182 | 1.7 | 4.3 | 0.00 | 0.00 | 0.00 | 51 | 1017.0 |
| 20260504004516 | 75 | 177 | 1.7 | 3.5 | 0.00 | 0.00 | 0.00 | 50 | 1017.0 |
| 20260504003516 | 75 | 167 | 1.7 | 4.3 | 0.00 | 0.00 | 0.00 | 49 | 1017.1 |
| 20260504002520 | 76 | 184 | 1.7 | 4.3 | 0.00 | 0.00 | 0.00 | 49 | 1016.9 |
| 20260504001520 | 76 | 161 | 1.7 | 5.2 | 0.00 | 0.00 | 0.00 | 48 | 1017.0 |
| 20260504000520 | 78 | 154 | 2.6 | 4.3 | 0.00 | 0.00 | 0.00 | 47 | 1017.0 |
| 20260503235517 | 79 | 170 | 1.7 | 4.3 | 0.00 | 0.00 | 0.00 | 44 | 1017.0 |
| 20260503234557 | 80 | 178 | 1.7 | 4.3 | 0.00 | 0.00 | 0.00 | 40 | 1017.0 |
| 20260503233517 | 80 | 137 | 1.7 | 5.2 | 0.00 | 0.00 | 0.00 | 40 | 1017.0 |
| 20260503232558 | 80 | 116 | 1.7 | 4.3 | 0.00 | 0.00 | 0.00 | 41 | 1017.1 |
| 20260503231517 | 81 | 136 | 1.7 | 4.3 | 0.00 | 0.00 | 0.00 | 39 | 1017.2 |
| 20260503230518 | 80 | 109 | 1.7 | 4.3 | 0.00 | 0.00 | 0.00 | 38 | 1017.2 |
| 20260503225558 | 81 | 75 | 2.6 | 5.2 | 0.00 | 0.00 | 0.00 | 38 | 1017.2 |
| 20260503224538 | 81 | 165 | 2.6 | 6.1 | 0.00 | 0.00 | 0.00 | 39 | 1017.4 |
| 20260503223518 | 81 | 158 | 2.6 | 5.2 | 0.00 | 0.00 | 0.00 | 39 | 1017.5 |
| 20260503222518 | 81 | 178 | 1.7 | 6.1 | 0.00 | 0.00 | 0.00 | 39 | 1017.5 |
| 20260503221518 | 82 | 91 | 2.6 | 7.0 | 0.00 | 0.00 | 0.00 | 37 | 1017.8 |
| 20260503220519 | 83 | 166 | 1.7 | 5.2 | 0.00 | 0.00 | 0.00 | 37 | 1017.9 |
| 20260503215519 | 81 | 122 | 1.7 | 4.3 | 0.00 | 0.00 | 0.00 | 38 | 1017.8 |
| 20260503214519 | 80 | 59 | 3.5 | 7.0 | 0.00 | 0.00 | 0.00 | 39 | 1017.8 |
| 20260503213539 | 82 | 111 | 2.6 | 5.2 | 0.00 | 0.00 | 0.00 | 38 | 1018.0 |
| 20260503212519 | 82 | 105 | 2.6 | 7.0 | 0.00 | 0.00 | 0.00 | 38 | 1018.3 |
| 20260503211519 | 81 | 100 | 1.7 | 4.3 | 0.00 | 0.00 | 0.00 | 38 | 1018.4 |
| 20260503210516 | 81 | 75 | 3.5 | 8.7 | 0.00 | 0.00 | 0.00 | 38 | 1018.5 |
| 20260503205516 | 80 | 46 | 1.7 | 5.2 | 0.00 | 0.00 | 0.00 | 39 | 1018.6 |
| 20260503204537 | 82 | 81 | 3.5 | 7.0 | 0.00 | 0.00 | 0.00 | 39 | 1018.7 |
| 20260503203520 | 82 | 165 | 3.5 | 7.0 | 0.00 | 0.00 | 0.00 | 39 | 1018.9 |
| 20260503202519 | 82 | 157 | 2.6 | 5.2 | 0.00 | 0.00 | 0.00 | 39 | 1019.0 |
| 20260503201517 | 81 | 78 | 1.7 | 5.2 | 0.00 | 0.00 | 0.00 | 40 | 1019.2 |
| 20260503200517 | 81 | 73 | 3.5 | 13.9 | 0.00 | 0.00 | 0.00 | 41 | 1019.4 |
| 20260503195557 | 80 | 58 | 2.6 | 7.8 | 0.00 | 0.00 | 0.00 | 41 | 1019.6 |
| 20260503194520 | 81 | 69 | 2.6 | 8.7 | 0.00 | 0.00 | 0.00 | 40 | 1019.7 |
| 20260503193520 | 79 | 175 | 1.7 | 4.3 | 0.00 | 0.00 | 0.00 | 41 | 1019.8 |
| 20260503192518 | 80 | 108 | 3.5 | 6.1 | 0.00 | 0.00 | 0.00 | 41 | 1020.0 |
| 20260503191538 | 80 | 72 | 2.6 | 6.1 | 0.00 | 0.00 | 0.00 | 41 | 1020.2 |
| 20260503190518 | 80 | 185 | 1.7 | 5.2 | 0.00 | 0.00 | 0.00 | 41 | 1020.3 |